TimeCDT,TemperatureF,Dew PointF,Humidity,Sea Level PressureIn,VisibilityMPH,Wind Direction,Wind SpeedMPH,Gust SpeedMPH,PrecipitationIn,Events,Conditions,WindDirDegrees,DateUTC
12:15 AM,64.4,55.4,73,30.05,10.0,SE,8.1,-,N/A,Thunderstorm,Thunderstorm,130,2013-06-14 05:15:00
12:35 AM,64.4,55.4,73,30.06,10.0,SE,8.1,-,N/A,,Clear,140,2013-06-14 05:35:00
12:55 AM,66.2,55.4,68,30.07,10.0,SSE,6.9,-,N/A,,Clear,150,2013-06-14 05:55:00
1:15 AM,64.4,55.4,73,30.06,10.0,ESE,5.8,-,N/A,,Clear,120,2013-06-14 06:15:00
1:35 AM,64.4,55.4,73,30.04,10.0,ESE,8.1,-,N/A,,Scattered Clouds,110,2013-06-14 06:35:00
1:55 AM,64.4,57.2,77,30.03,10.0,SE,9.2,-,N/A,Rain,Light Rain,130,2013-06-14 06:55:00
2:15 AM,62.6,57.2,82,30.02,10.0,ESE,9.2,-,N/A,,Scattered Clouds,110,2013-06-14 07:15:00
2:35 AM,62.6,57.2,82,30.01,10.0,ESE,9.2,-,N/A,,Clear,120,2013-06-14 07:35:00
2:54 AM,62.6,57.2,82,29.99,10.0,ESE,9.2,-,N/A,,Clear,110,2013-06-14 07:54:00
3:15 AM,62.6,57.2,82,29.99,10.0,SE,9.2,-,N/A,,Clear,130,2013-06-14 08:15:00
3:35 AM,62.6,57.2,82,29.99,10.0,SE,9.2,18.4,N/A,,Clear,130,2013-06-14 08:35:00
3:54 AM,62.6,57.2,82,29.98,10.0,SE,11.5,-,0.01,,Clear,130,2013-06-14 08:54:00
4:15 AM,62.6,57.2,82,29.98,10.0,ESE,10.4,-,N/A,,Scattered Clouds,120,2013-06-14 09:15:00
4:35 AM,62.6,57.2,82,29.96,10.0,ESE,12.7,-,N/A,,Scattered Clouds,120,2013-06-14 09:35:00
4:55 AM,62.6,57.2,82,29.96,10.0,SE,11.5,-,N/A,,Scattered Clouds,130,2013-06-14 09:55:00
5:15 AM,62.6,55.4,77,29.97,10.0,SE,11.5,-,N/A,,Mostly Cloudy,130,2013-06-14 10:15:00
5:34 AM,62.6,55.4,77,29.96,10.0,SE,10.4,-,N/A,,Scattered Clouds,130,2013-06-14 10:34:00
5:55 AM,62.6,55.4,77,29.96,10.0,ESE,11.5,-,N/A,,Clear,120,2013-06-14 10:55:00
6:15 AM,62.6,55.4,77,29.98,10.0,SE,8.1,-,N/A,,Clear,130,2013-06-14 11:15:00
6:35 AM,62.6,57.2,82,29.98,10.0,ESE,9.2,-,N/A,,Mostly Cloudy,110,2013-06-14 11:35:00
6:55 AM,62.6,57.2,82,29.98,10.0,ESE,9.2,-,N/A,,Mostly Cloudy,110,2013-06-14 11:55:00
7:15 AM,62.6,57.2,82,29.98,10.0,ESE,11.5,-,N/A,,Scattered Clouds,120,2013-06-14 12:15:00
7:35 AM,64.4,57.2,77,29.98,10.0,ESE,13.8,-,N/A,,Mostly Cloudy,120,2013-06-14 12:35:00
7:55 AM,64.4,57.2,77,29.98,10.0,ESE,12.7,-,N/A,,Overcast,120,2013-06-14 12:55:00
8:15 AM,64.4,57.2,77,30.00,10.0,SE,11.5,-,N/A,,Overcast,130,2013-06-14 13:15:00
8:34 AM,66.2,57.2,73,29.99,10.0,ESE,13.8,-,N/A,,Overcast,120,2013-06-14 13:34:00
8:55 AM,66.2,57.2,73,29.98,10.0,ESE,13.8,-,N/A,,Mostly Cloudy,120,2013-06-14 13:55:00
9:04 AM,68.0,57.2,68,29.97,10.0,ESE,18.4,-,N/A,,Mostly Cloudy,120,2013-06-14 14:04:00
9:34 AM,69.8,57.2,64,29.95,10.0,ESE,16.1,24.2,N/A,,Scattered Clouds,120,2013-06-14 14:34:00
9:54 AM,69.8,57.2,64,29.94,10.0,ESE,19.6,24.2,N/A,,Clear,120,2013-06-14 14:54:00
10:14 AM,69.8,57.2,64,29.94,10.0,ESE,18.4,-,N/A,,Clear,120,2013-06-14 15:14:00
10:35 AM,71.6,57.2,60,29.94,10.0,ESE,16.1,23.0,N/A,,Clear,120,2013-06-14 15:35:00
10:55 AM,69.8,57.2,64,29.94,10.0,SE,16.1,24.2,N/A,,Clear,130,2013-06-14 15:55:00
11:15 AM,71.6,59.0,64,29.93,10.0,ESE,18.4,23.0,N/A,,Clear,120,2013-06-14 16:15:00
11:35 AM,73.4,57.2,57,29.91,10.0,SE,23.0,29.9,N/A,,Clear,130,2013-06-14 16:35:00
11:55 AM,75.2,59.0,57,29.89,10.0,SE,28.8,-,N/A,,Clear,130,2013-06-14 16:55:00
12:14 PM,77.0,59.0,54,29.88,10.0,SE,26.5,34.5,N/A,,Clear,130,2013-06-14 17:14:00
12:35 PM,78.8,59.0,51,29.88,10.0,SE,21.9,34.5,N/A,,Clear,140,2013-06-14 17:35:00
12:55 PM,-9999,-9999,N/A,29.89,-9999.0,North,-9999.0,-,N/A,,Unknown,0,2013-06-14 17:55:00
1:15 PM,78.8,57.2,47,29.86,10.0,SE,29.9,34.5,N/A,,Clear,140,2013-06-14 18:15:00
1:35 PM,80.6,59.0,48,29.83,10.0,SE,29.9,35.7,N/A,,Clear,130,2013-06-14 18:35:00
1:55 PM,80.6,59.0,48,29.84,10.0,SE,26.5,33.4,N/A,,Clear,130,2013-06-14 18:55:00
2:15 PM,80.6,60.8,51,29.84,10.0,SSE,24.2,32.2,N/A,,Clear,150,2013-06-14 19:15:00
2:35 PM,80.6,60.8,51,29.83,10.0,SE,19.6,31.1,N/A,,Clear,140,2013-06-14 19:35:00
2:55 PM,80.6,60.8,51,29.82,10.0,SE,23.0,34.5,N/A,,Clear,130,2013-06-14 19:55:00
3:15 PM,80.6,60.8,51,29.82,10.0,SE,24.2,29.9,N/A,,Clear,130,2013-06-14 20:15:00
3:35 PM,82.4,62.6,51,29.82,10.0,SSE,24.2,31.1,N/A,,Mostly Cloudy,150,2013-06-14 20:35:00
3:54 PM,82.4,62.6,51,29.83,10.0,SSE,20.7,32.2,N/A,,Scattered Clouds,150,2013-06-14 20:54:00
4:15 PM,78.8,62.6,57,29.83,10.0,SSE,19.6,26.5,N/A,,Mostly Cloudy,150,2013-06-14 21:15:00
4:35 PM,78.8,62.6,57,29.83,10.0,SE,19.6,26.5,N/A,,Overcast,140,2013-06-14 21:35:00
4:55 PM,80.6,62.6,54,29.82,10.0,SE,18.4,24.2,N/A,,Mostly Cloudy,140,2013-06-14 21:55:00
5:15 PM,80.6,62.6,54,29.81,10.0,SE,17.3,-,N/A,,Scattered Clouds,130,2013-06-14 22:15:00
5:34 PM,80.6,62.6,54,29.79,10.0,SE,19.6,24.2,N/A,,Scattered Clouds,140,2013-06-14 22:34:00
5:55 PM,82.4,64.4,54,29.77,10.0,ESE,21.9,-,N/A,,Scattered Clouds,120,2013-06-14 22:55:00
6:14 PM,80.6,62.6,54,29.79,10.0,SE,15.0,25.3,N/A,,Mostly Cloudy,130,2013-06-14 23:14:00
6:35 PM,80.6,62.6,54,29.79,10.0,SE,13.8,-,N/A,,Mostly Cloudy,130,2013-06-14 23:35:00
6:55 PM,80.6,62.6,54,29.77,10.0,SE,15.0,-,N/A,,Overcast,130,2013-06-14 23:55:00
7:15 PM,80.6,64.4,58,29.77,10.0,SE,15.0,19.6,N/A,,Overcast,130,2013-06-15 00:15:00
7:35 PM,80.6,64.4,58,29.77,10.0,SE,13.8,-,N/A,,Mostly Cloudy,140,2013-06-15 00:35:00
7:54 PM,80.6,64.4,58,29.77,10.0,SE,9.2,-,N/A,,Overcast,140,2013-06-15 00:54:00
8:14 PM,80.6,66.2,61,29.77,10.0,SSE,9.2,-,N/A,,Mostly Cloudy,150,2013-06-15 01:14:00
8:34 PM,80.6,66.2,61,29.77,10.0,SSE,9.2,-,N/A,,Mostly Cloudy,150,2013-06-15 01:34:00
8:54 PM,80.6,66.2,61,29.77,10.0,SSE,6.9,-,N/A,,Mostly Cloudy,150,2013-06-15 01:54:00
9:14 PM,78.8,66.2,65,29.78,10.0,SE,9.2,-,N/A,,Mostly Cloudy,140,2013-06-15 02:14:00
9:35 PM,78.8,64.4,61,29.79,10.0,SE,15.0,-,N/A,,Mostly Cloudy,140,2013-06-15 02:35:00
9:54 PM,77.0,64.4,65,29.81,10.0,SE,18.4,24.2,N/A,,Overcast,140,2013-06-15 02:54:00
10:14 PM,75.2,64.4,69,29.82,10.0,SE,16.1,24.2,N/A,,Mostly Cloudy,140,2013-06-15 03:14:00
10:34 PM,73.4,62.6,69,29.82,10.0,SE,19.6,-,N/A,,Mostly Cloudy,140,2013-06-15 03:34:00
10:55 PM,73.4,62.6,69,29.82,10.0,SE,17.3,23.0,N/A,,Scattered Clouds,140,2013-06-15 03:55:00
11:15 PM,73.4,64.4,73,29.82,10.0,SE,12.7,-,N/A,,Mostly Cloudy,140,2013-06-15 04:15:00
11:35 PM,71.6,64.4,78,29.83,10.0,SSE,10.4,-,N/A,,Scattered Clouds,160,2013-06-15 04:35:00
11:55 PM,71.6,64.4,78,29.82,10.0,SSE,6.9,-,N/A,,Scattered Clouds,160,2013-06-15 04:55:00